This is the latest recevied weather packets stored in our database for station/object K5DLF-13. If no packets are shown the sender has not sent any weather packets the latest 1 day(s).
| Time | Temp. | Humidity | Pressure | Rain* | Wind** | Luminosity | Snow |
|---|---|---|---|---|---|---|---|
| 1778023497 | 26.67° C | 87% | 1004.8 hPa | 0 mm | 1.34 m/s, 198° | 65 W/m² | - |
| 1778023197 | 26.67° C | 87% | 1004.8 hPa | 0 mm | 1.34 m/s, 198° | 63 W/m² | - |
| 1778022897 | 26.67° C | 87% | 1004.8 hPa | 0 mm | 0.89 m/s, 199° | 56 W/m² | - |
| 1778022597 | 26.67° C | 86% | 1004.9 hPa | 0 mm | 1.34 m/s, 208° | 40 W/m² | - |
| 1778022297 | 26.67° C | 86% | 1004.8 hPa | 0 mm | 1.34 m/s, 208° | 46 W/m² | - |
| 1778021997 | 27.22° C | 86% | 1004.8 hPa | 0 mm | 1.34 m/s, 210° | 54 W/m² | - |
| 1778021697 | 27.22° C | 84% | 1004.8 hPa | 0 mm | 0.89 m/s, 213° | 90 W/m² | - |
| 1778021397 | 27.22° C | 84% | 1004.7 hPa | 0 mm | 1.34 m/s, 214° | 63 W/m² | - |
| 1778021097 | 27.22° C | 84% | 1004.6 hPa | 0 mm | 1.34 m/s, 164° | 107 W/m² | - |
| 1778020797 | 27.22° C | 84% | 1004.7 hPa | 0 mm | 0.89 m/s, 164° | 100 W/m² | - |
| 1778020497 | 27.78° C | 83% | 1004.8 hPa | 0 mm | 1.34 m/s, 163° | 91 W/m² | - |
| 1778020197 | 27.78° C | 83% | 1004.9 hPa | 0 mm | 1.34 m/s, 206° | 130 W/m² | - |
| 1778019897 | 27.78° C | 83% | 1004.9 hPa | 0 mm | 1.34 m/s, 191° | 243 W/m² | - |
| 1778019597 | 27.22° C | 85% | 1004.8 hPa | 0 mm | 1.34 m/s, 211° | 230 W/m² | - |
| 1778019297 | 27.22° C | 85% | 1004.8 hPa | 0 mm | 0.89 m/s, 231° | 283 W/m² | - |
| 1778018997 | 27.22° C | 86% | 1004.8 hPa | 0 mm | 0.89 m/s, 196° | 271 W/m² | - |
| 1778018697 | 27.22° C | 86% | 1004.9 hPa | 0 mm | 0.89 m/s, 200° | 153 W/m² | - |
| 1778018397 | 27.22° C | 86% | 1005 hPa | 0 mm | 1.34 m/s, 229° | 193 W/m² | - |
| 1778018097 | 26.67° C | 86% | 1005.2 hPa | 0 mm | 1.34 m/s, 168° | 188 W/m² | - |
| 1778017797 | 26.67° C | 86% | 1005.2 hPa | 0 mm | 1.34 m/s, 177° | 200 W/m² | - |
| 1778017497 | 26.67° C | 86% | 1005.3 hPa | 0 mm | 0.89 m/s, 175° | 181 W/m² | - |
| 1778017197 | 26.67° C | 86% | 1005.4 hPa | 0 mm | 0.89 m/s, 174° | 128 W/m² | - |
| 1778016897 | 27.22° C | 85% | 1005.4 hPa | 0 mm | 1.34 m/s, 174° | 90 W/m² | - |
| 1778016597 | 27.22° C | 84% | 1005.4 hPa | 0 mm | 1.34 m/s, 171° | 156 W/m² | - |
| 1778016297 | 27.22° C | 84% | 1005.5 hPa | 0 mm | 1.34 m/s, 146° | 97 W/m² | - |
* Rain latest hour (hover to see other rain measurements)
** Current wind speed in m/s (hover to see current wind gust speed)